User: anonymous   Login
Location: Hickory_Viewmont
(35.7830°N, 81.3170°W)
Time: 15:49:06
(UTC-04:00)
Language:

Okean-O - Orbit

View from above orbital plane
View from above orbital plane
View from above satellite
View from above satellite

Ground track
Ground track

The orbit data is extracted from the following two-line orbital elements,

1 25860U 99039A   18173.89927328 +.00000020 +00000-0 +10538-4 0  9992
2 25860 098.2157 169.5956 0001726 073.2856 286.8542 14.76552457018441
Epoch (UTC): 22 June 2018 21:34:57
Eccentricity: 0.0001726
inclination: 98.2157°
perigee height: 639 km
apogee height: 641 km
right ascension of ascending node: 169.5956°
argument of perigee: 73.2856°
revolutions per day: 14.76552457
mean anomaly at epoch: 286.8542°
orbit number at epoch: 1844

The dashed part of the orbit path shows where the satellite is in the earth's shadow,  

DLR